Location: Les Coudrans
(46.1056°N, 1.1158°W)
Time: 00:35:31
(UTC+00:00)

DMSP B5D2-2 - Pass Details

Date: 26 June 2021
Orbit: 789 x 807 km, 98.3° (Epoch: 02 August)

Event Time Altitude Azimuth Distance (km) Brightness Sun altitude
Rises 20:45:01 0° 2° (N) 3,317 8.0 -6.8°
Reaches altitude 10° 20:47:52 10° 347° (NNW) 2,379 7.6 -7.2°
Maximum altitude 20:51:41 21° 300° (WNW) 1,731 7.0 -7.6°
Drops below altitude 10° 20:55:29 10° 253° (WSW) 2,360 6.9 -8.1°
Sets 20:58:18 0° 237° (WSW) 3,282 7.4 -8.4°
